Location: Chervonnoye
(48.6000°N, 34.4000°E)
Time: 05:45:30
(UTC+00:00)

Cosmos 921 Rocket - Pass Details

Date: 23 November 2020
Orbit: 572 x 631 km, 75.8° (Epoch: 18 January)

Event Time Altitude Azimuth Distance (km) Brightness Sun altitude
Rises 14:22:42 0° 217° (SW) 2,897 7.8 -4.9°
Reaches altitude 10° 14:25:02 10° 224° (SW) 2,000 7.1 -5.3°
Maximum altitude 14:29:18 43° 296° (WNW) 886 4.3 -5.9°
Drops below altitude 10° 14:33:39 10° 9° (N) 2,024 5.4 -6.6°
Sets 14:36:01 0° 16° (NNE) 2,936 6.1 -7.0°
